GGSE 2

operational
NORAD ID: 1244 Int'l Des: 1965-016 Owner: NRO/NRL Country: US
LEOCIRCULAR

About GGSE 2

Description loading...

Live Position

Loading 3D Globe...

Upcoming Passes

Altitude History

Altitude vs Time

uPlot chart will show altitude changes over time

Two-Line Element Set

1 1244U 65016B 25278.22455009 .00000095 00000-0 10712-3 0 9998
2 1244 70.0819 9.4277 0018456 59.6725 300.6204 13.96100870 82476
Epoch: Oct 5, 2025 • Age: 10 hours

Current Status

Altitude 898.4 km
Velocity 7.41 km/s
Sub-Earth Point 25.70°N, 126.37°E
Type other

Large Constellations

Loading constellations...